Flag for Norway Weather past 2 weeks in Kleppe, Norway

Now
49 °F

Low clouds.


Feels Like: 45 °F
Forecast: 38 / 46 °F
Wind: 9 mph from Southwest

Location: Stavanger / Sola

Current Time: Apr 25, 2015 at 3:51:00 PM

Latest Report: Apr 25, 2015 at 3:00 PM


Visibility: 5 mi

Pressure: 29.32 "Hg

Humidity: 90%

Dew point: 46 °F

Location of KleppeLocation

Historic Weather in Kleppe — Graph

°F

Kleppe temperature yesterday

Maximum temperature yesterday: 48 °F (at 4:00 PM)
Minimum temperature yesterday: 45 °F (at 6:00 AM)
Average temperature yesterday: 46 °F

Past Weeks' High & Low Weather Summary

 TemperatureHumidityPressure
High61 °F (Apr 20, 11:00 AM)99% (Apr 21, 2:00 AM)30.46 "Hg (Apr 21, 2:00 AM)
Low35 °F (Apr 17, 7:00 AM)42% (Apr 20, 11:00 AM)29.32 "Hg (Apr 25, 12:00 PM)
Average45 °F81%29.98 "Hg
* Reported Apr 10 2:00 PM — Apr 25 2:00 PM, Kleppe, Weather by CustomWeather, © 2015

Note: Actual official high and low records may vary slightly from our data, if they occured in-between our weather recording intervals... More about our weather records

Advertising

Kleppe weather history for previous 24 hours

 ConditionsComfort  
Time TempWeatherWind HumidityBarometerVisibility
2:00 PM
Sat, Apr 25
50 °FOvercast.9 mph91%29.32 "Hg5 mi
1:00 PM49 °FFog.9 mph95%29.32 "Hg2 mi
12:00 PM48 °FDrizzle. Low clouds.12 mph96%29.32 "Hg3 mi
11:00 AM48 °FLight rain. Low clouds.8 mph95%29.35 "Hg2 mi
10:00 AM47 °FFog.8 mph94%29.35 "Hg2 mi
9:00 AM47 °FLow clouds.9 mph96%29.35 "Hg2 mi
8:00 AM46 °FLow clouds.9 mph91%29.35 "Hg11 mi
7:00 AM45 °FRain. Overcast.6 mph92%29.38 "Hg4 mi
6:00 AM45 °FLots of rain. Overcast.2 mph94%29.41 "Hg3 mi
5:00 AM45 °FLight rain. Passing clouds.2 mph92%29.41 "Hg4 mi
4:00 AM46 °FLight rain. Overcast.2 mph89%29.47 "Hg5 mi
3:00 AM46 °FPassing clouds.3 mph87%29.50 "Hg8 mi
1:00 AM46 °FOvercast.6 mph82%29.55 "Hg9 mi
12:00 AM46 °FOvercast.2 mph79%29.57 "Hg12 mi
10:00 PM
Fri, Apr 24
46 °FOvercast.6 mph82%29.60 "Hg22 mi
9:00 PM46 °FOvercast.6 mph85%29.60 "Hg13 mi
8:00 PM47 °FOvercast.6 mph85%29.62 "Hg11 mi
7:00 PM48 °FOvercast.6 mph81%29.64 "Hg14 mi
6:00 PM47 °FOvercast.3 mph79%29.66 "Hg8 mi
5:00 PM48 °FOvercast.7 mph71%29.67 "Hg17 mi
4:00 PM48 °FPartly sunny.6 mph70%29.70 "Hg11 mi
3:00 PM48 °FOvercast.6 mph72%29.72 "Hg9 mi
Weather by CustomWeather, © 2015

See weather overviewHow to use our weather pages